This is the latest recevied weather packets stored in our database for station/object W3TMB. If no packets are shown the sender has not sent any weather packets the latest 10 day(s).
| Time | Temp. | Humidity | Pressure | Rain* | Wind** | Luminosity | Snow |
|---|---|---|---|---|---|---|---|
| 1777749370 | 11.11° C | 52% | 1011.1 hPa | 0 mm | - | 402 W/m² | - |
| 1777749068 | 11.11° C | 55% | 1011.3 hPa | 0 mm | - | 263 W/m² | - |
| 1777748765 | 11.11° C | 53% | 1011.3 hPa | 0 mm | - | 216 W/m² | - |
| 1777748463 | 11.11° C | 53% | 1011.2 hPa | 0 mm | - | 235 W/m² | - |
| 1777748157 | 11.11° C | 54% | 1011.4 hPa | 0 mm | - | 271 W/m² | - |
| 1777747854 | 11.11° C | 54% | 1011.5 hPa | 0 mm | - | 263 W/m² | - |
| 1777747550 | 11.11° C | 56% | 1011.3 hPa | 0 mm | - | 266 W/m² | - |
| 1777747246 | 11.11° C | 54% | 1011.4 hPa | 0 mm | - | 291 W/m² | - |
| 1777746943 | 10.56° C | 54% | 1011.4 hPa | 0 mm | - | 277 W/m² | - |
| 1777746639 | 10.56° C | 52% | 1011.1 hPa | 0 mm | - | 213 W/m² | - |
| 1777746334 | 10.56° C | 52% | 1011.1 hPa | 0 mm | - | 153 W/m² | - |
| 1777746030 | 11.11° C | 52% | 1011.1 hPa | 0 mm | - | 88 W/m² | - |
| 1777745728 | 11.11° C | 49% | 1010.9 hPa | 0 mm | - | 85 W/m² | - |
| 1777745426 | 11.67° C | 49% | 1010.9 hPa | 0 mm | - | 145 W/m² | - |
| 1777745123 | 11.67° C | 51% | 1011.1 hPa | 0 mm | - | 225 W/m² | - |
| 1777744820 | 11.67° C | 50% | 1011.1 hPa | 0 mm | - | 377 W/m² | - |
| 1777744514 | 11.11° C | 51% | 1011 hPa | 0 mm | - | 267 W/m² | - |
| 1777744210 | 11.11° C | 48% | 1011 hPa | 0 mm | - | 189 W/m² | - |
| 1777743907 | 11.11° C | 49% | 1011 hPa | 0 mm | - | 191 W/m² | - |
| 1777743604 | 11.67° C | 48% | 1011.1 hPa | 0 mm | - | 196 W/m² | - |
| 1777743301 | 11.11° C | 48% | 1011.1 hPa | 0 mm | - | 173 W/m² | - |
| 1777742999 | 10.56° C | 50% | 1011.3 hPa | 0 mm | - | 159 W/m² | - |
| 1777742696 | 10.56° C | 51% | 1011.2 hPa | 0 mm | - | 160 W/m² | - |
| 1777742392 | 10.56° C | 51% | 1011.1 hPa | 0 mm | - | 121 W/m² | - |
| 1777742088 | 11.11° C | 52% | 1011.1 hPa | 0 mm | - | 109 W/m² | - |
* Rain latest hour (hover to see other rain measurements)
** Current wind speed in m/s (hover to see current wind gust speed)